Content
SEND FEEDBACK

Canada Flag

MONTREAL, QUEBEC


Home > North America > Canada > Quebec
Elevation: 118 feet     Latitude: 45 28N     Longitude: 073 45W

WEATHER
 
SELECT A DAY
Number of Records: 218,660;   Date Range: 1/1/95 - 3/22/16
 
SHARE

PRINT THIS DATA

[ ← Previous Day ]
WEATHER ALMANAC - FEBRUARY 18, 2013
[ Next Day → ]
[ °C ]   °F
Weather ElementAverageHighLow
Temperature9.9 °F17.6 °F (3:00 pm)3 °F (7:00 am)
Dewpoint-3.1 °F1.4 °F (8:00 pm)-6 °F (7:00 am)
Humidity54.4 %72 % (4:00 am)30 % (1:00 pm)
Barometer28.99 in30.17 in (6:00 pm) (7:00 pm)
Wind Speed17.3 mph25.3 mph (4:00 pm)
Wind Gust32.2 mph (10:00 am)
Weather ElementAverage
Visibility21.6 mi
Wind DirectionWSW (246.3 °)

Weather ElementTotal
Precipitation---
Heating Degree Days54.7 (Base 65)
Averaged from 27 records on February 18, 2013
WEATHER CONDITIONS BREAKOUT
WIND DIRECTION BREAKOUT
WEATHER BY HOUR - FEBRUARY 18, 2013
[ °C ]   °F
Local TimeTemperatureDewpointHumidityBarometerVisibilityWind DirectionWind SpeedGust SpeedPrecipitationEventsConditions
1:00 AM5.0 °F-4.0 °F51 %29.95 in15.0 miWest (260°)18.4 mphClear
1:00 AM5.0 °F-4.0 °F66 %29.95 in15.0 miWest (260°)18.4 mph24.2 mphPartly Cloudy
2:00 AM5.0 °F-4.0 °F66 %29.97 in15.0 miWest (260°)20.7 mph27.6 mphClear
3:00 AM5.0 °F-4.0 °F66 %29.99 in15.0 miWest (260°)23.0 mph31.1 mphClear
4:00 AM3.2 °F-4.0 °F72 %30.01 in15.0 miWest (260°)20.7 mph27.6 mphClear
5:00 AM3.2 °F-5.8 °F66 %30.04 in15.0 miWSW (250°)20.7 mphClear
6:00 AM3.2 °F-5.8 °F66 %30.07 in15.0 miWSW (250°)19.6 mph28.8 mphClear
7:00 AM3.0 °F-6.0 °F54 %30.10 in15.0 miWest (260°)19.6 mphClear
7:00 AM3.2 °F-5.8 °F66 %30.10 in15.0 miWest (260°)20.7 mph27.6 mphPartly Cloudy
8:00 AM3.2 °F-5.8 °F66 %30.13 in30.0 miWest (260°)19.6 mph27.6 mphClear
9:00 AM5.0 °F-5.8 °F61 %30.14 in30.0 miWest (260°)18.4 mph25.3 mphClear
10:00 AM6.8 °F-5.8 °F56 %30.0 miWest (270°)24.2 mph32.2 mphClear
11:00 AM8.6 °F-4.0 °F57 %30.15 in30.0 miWest (260°)20.7 mph31.1 mphClear
12:00 PM12.2 °F-4.0 °F48 %30.14 in30.0 miWest (260°)21.9 mph32.2 mphClear
1:00 PM14.0 °F-3.0 °F30 %30.13 in28.0 miWest (260°)23.0 mph
1:00 PM14.0 °F-4.0 °F45 %30.13 in30.0 miWest (260°)19.6 mph32.2 mphClear
2:00 PM15.8 °F-4.0 °F41 %30.13 in30.0 miWest (260°)19.6 mph27.6 mphClear
3:00 PM17.6 °F-2.2 °F42 %30.14 in30.0 miWSW (250°)21.9 mph27.6 mphClear
4:00 PM17.6 °F-4.0 °F38 %30.14 in30.0 miWSW (250°)25.3 mphPartly Cloudy
5:00 PM17.6 °F-2.2 °F42 %30.15 in30.0 miWSW (250°)16.1 mph24.2 mphClear
6:00 PM15.8 °F-0.4 °F49 %30.17 in30.0 miWSW (250°)12.7 mphClear
7:00 PM16.0 °F0.0 °F35 %30.17 in15.0 miWSW (250°)10.4 mph
7:00 PM15.8 °F-0.4 °F49 %30.17 in15.0 miWest (260°)11.5 mphClear
8:00 PM14.0 °F1.4 °F57 %30.17 in15.0 miSW (230°)9.2 mphClear
9:00 PM14.0 °F1.4 °F57 %30.16 in15.0 miWSW (250°)6.9 mphClear
10:00 PM12.2 °F1.4 °F62 %30.15 in15.0 miWSW (250°)4.6 mphClear
11:00 PM12.2 °F1.4 °F62 %30.13 in15.0 miCalmPartly Cloudy
Hourly data recorded from CYUL, located miles away from Montreal, Quebec




STORIES FROM OUR PARTNERS